Location: Simi Valley
(34.2690°N, 118.7810°W)
Time: 19:30:35
(UTC-07:00)

SAR-Lupe-1 - Visible Passes

Search period start: 30 April 2017 00:00
Search period end: 10 May 2017 00:00
Orbit: 482 x 485 km, 98.2° (Epoch: 22 April)

Date Brightness Start Highest point End Pass type
(mag) Time Alt. Az. Time Alt. Az. Time Alt. Az.
30 Apr 4.8 20:39:58 20° SE 20:41:54 35° ENE 20:45:12 10° N visible
30 Apr 7.1 22:14:50 10° WSW 22:15:22 10° W 22:15:54 10° W visible
01 May 5.8 20:15:09 10° ESE 20:17:30 17° ENE 20:19:52 10° NNE visible
01 May 6.2 21:49:27 19° SW 21:50:40 22° W 21:53:31 10° NW visible
02 May 4.8 21:24:35 30° SSW 21:26:01 50° W 21:29:32 10° NNW visible
03 May 4.0 20:59:41 27° SSE 21:01:28 66° ENE 21:05:02 10° N visible
04 May 5.1 20:34:49 16° ESE 20:37:00 28° ENE 20:40:08 10° NNE visible
04 May 6.8 22:09:10 11° WSW 22:10:22 13° W 22:12:03 10° WNW visible
05 May 6.1 20:10:43 10° E 20:12:37 14° ENE 20:14:31 10° NE visible
05 May 5.9 21:44:17 21° SW 21:45:40 27° W 21:48:47 10° NW visible
06 May 4.3 21:19:24 29° S 21:21:03 64° WSW 21:24:38 10° NNW visible
07 May 4.3 20:54:31 23° SE 20:56:31 52° ENE 21:00:01 10° N visible
08 May 5.4 20:29:38 12° ESE 20:32:04 23° ENE 20:34:58 10° NNE visible
08 May 6.6 22:03:58 13° WSW 22:05:21 16° W 22:07:36 10° WNW visible
09 May 5.5 21:39:05 23° SW 21:40:40 34° W 21:43:58 10° NNW visible
